QPF
0.00 0.00 0.00 0.01 0.02 0.03 0.01 0.01 0.01 0.01 0.00 0.00 0.01 0.02 0.01 0.00 0.00 0.00 0.01 0.03 0.02 0.00 0.01 0.01 0.00 0.00 0.00 0.01 0.01 0.01 0.01 0.02 0.02 0.03 0.02 0.02 0.01 0.01 0.01 0.01 0.01 0.01 0.02 0.03
0.00 0.01 0.00 0.00 0.01 0.01 0.00 0.01 0.01 0.00 0.00 0.01 0.02 0.05 0.03 0.01 0.00 0.00 0.01 0.02 0.02 0.01 0.00 0.01 0.01 0.01 0.01 0.01 0.01 0.01 0.01 0.01 0.02 0.02 0.02 0.02 0.02 0.01 0.01 0.02 0.02 0.01 0.01 0.02
0.02 0.01 0.00 0.00 0.00 0.01 0.00 0.00 0.01 0.00 0.00 0.01 0.01 0.05 0.03 0.01 0.00 0.00 0.00 0.00 0.01 0.01 0.02 0.01 0.00 0.00 0.00 0.01 0.02 0.02 0.02 0.02 0.01 0.01 0.01 0.01 0.01 0.01 0.02 0.02 0.02 0.02 0.01 0.01
0.01 0.00 0.00 0.00 0.00 0.01 0.01 0.00 0.00 0.00 0.01 0.02 0.02 0.05 0.04 0.02 0.01 0.01 0.00 0.00 0.00 0.00 0.01 0.02 0.01 0.00 0.01 0.01 0.01 0.01 0.01 0.01 0.01 0.01 0.02 0.02 0.03 0.02 0.02 0.03 0.02 0.02 0.01 0.01
0.00 0.00 0.00 0.00 0.00 0.00 0.01 0.00 0.00 0.00 0.01 0.01 0.02 0.05 0.07 0.05 0.03 0.01 0.00 0.00 0.00 0.00 0.02 0.01 0.00 0.00 0.01 0.01 0.00 0.00 0.01 0.01 0.02 0.02 0.03 0.03 0.02 0.02 0.02 0.02 0.02 0.02 0.02 0.01
0.00 0.00 0.00 0.00 0.00 0.01 0.01 0.01 0.01 0.01 0.02 0.02 0.03 0.05 0.07 0.06 0.04 0.01 0.00 0.01 0.01 0.00 0.01 0.02 0.01 0.00 0.00 0.00 0.00 0.00 0.01 0.01 0.02 0.02 0.02 0.03 0.02 0.03 0.03 0.02 0.03 0.02 0.02 0.02
0.00 0.00 0.00 0.00 0.00 0.01 0.01 0.01 0.02 0.02 0.02 0.03 0.03 0.04 0.04 0.03 0.03 0.02 0.01 0.01 0.01 0.01 0.01 0.01 0.01 0.01 0.00 0.00 0.00 0.01 0.01 0.02 0.02 0.02 0.02 0.02 0.02 0.03 0.03 0.02 0.02 0.03 0.01 0.01
0.00 0.01 0.00 0.00 0.00 0.01 0.01 0.01 0.02 0.03 0.03 0.04 0.05 0.06 0.04 0.01 0.01 0.01 0.01 0.00 0.00 0.00 0.01 0.01 0.01 0.01 0.00 0.00 0.00 0.01 0.02 0.02 0.01 0.01 0.02 0.02 0.02 0.02 0.02 0.04 0.03 0.04 0.03 0.02
0.00 0.01 0.01 0.00 0.00 0.00 0.01 0.01 0.01 0.02 0.03 0.03 0.06 0.06 0.02 0.01 0.03 0.02 0.01 0.01 0.00 0.00 0.00 0.01 0.01 0.00 0.01 0.01 0.01 0.01 0.02 0.02 0.01 0.02 0.02 0.02 0.02 0.02 0.02 0.03 0.02 0.03 0.03 0.03
0.00 0.01 0.00 0.00 0.00 0.00 0.00 0.01 0.01 0.02 0.03 0.04 0.04 0.04 0.02 0.01 0.02 0.02 0.01 0.01 0.00 0.00 0.00 0.01 0.01 0.01 0.01 0.01 0.01 0.01 0.01 0.02 0.02 0.02 0.02 0.02 0.02 0.02 0.02 0.02 0.01 0.02 0.02 0.03
0.00 0.01 0.01 0.00 0.00 0.00 0.00 0.00 0.01 0.02 0.02 0.02 0.03 0.03 0.01 0.02 0.02 0.01 0.01 0.01 0.02 0.02 0.01 0.00 0.01 0.01 0.01 0.01 0.01 0.01 0.01 0.01 0.03 0.03 0.03 0.04 0.03 0.02 0.02 0.01 0.02 0.02 0.02 0.02
0.00 0.01 0.01 0.01 0.00 0.00 0.00 0.00 0.00 0.01 0.01 0.01 0.03 0.04 0.01 0.01 0.01 0.02 0.01 0.01 0.02 0.02 0.02 0.01 0.01 0.01 0.01 0.01 0.01 0.01 0.01 0.01 0.02 0.03 0.03 0.02 0.02 0.03 0.03 0.03 0.03 0.02 0.02 0.01
0.00 0.00 0.01 0.01 0.00 0.00 0.00 0.00 0.00 0.00 0.00 0.00 0.02 0.04 0.02 0.01 0.01 0.01 0.02 0.02 0.02 0.01 0.01 0.02 0.01 0.01 0.01 0.02 0.02 0.02 0.02 0.02 0.02 0.02 0.03 0.04 0.03 0.03 0.03 0.04 0.04 0.03 0.02 0.02
0.00 0.00 0.00 0.00 0.00 0.00 0.00 0.01 0.00 0.00 0.00 0.01 0.01 0.01 0.02 0.03 0.03 0.04 0.05 0.03 0.01 0.00 0.00 0.01 0.02 0.01 0.02 0.03 0.04 0.04 0.05 0.05 0.05 0.06 0.06 0.05 0.04 0.03 0.03 0.04 0.03 0.03 0.03 0.03
0.00 0.00 0.01 0.02 0.01 0.00 0.00 0.00 0.00 0.00 0.00 0.00 0.01 0.01 0.01 0.03 0.04 0.06 0.04 0.01 0.00 0.00 0.00 0.01 0.02 0.01 0.02 0.02 0.03 0.04 0.03 0.03 0.05 0.07 0.07 0.08 0.09 0.04 0.04 0.04 0.04 0.04 0.04 0.03
0.00 0.01 0.03 0.05 0.01 0.00 0.00 0.00 0.00 0.00 0.00 0.00 0.01 0.02 0.02 0.02 0.02 0.03 0.03 0.01 0.00 0.00 0.00 0.01 0.01 0.01 0.01 0.01 0.03 0.04 0.04 0.03 0.04 0.05 0.05 0.05 0.06 0.05 0.04 0.03 0.04 0.05 0.04 0.04
0.00 0.00 0.01 0.01 0.00 0.00 0.00 0.00 0.00 0.00 0.00 0.00 0.01 0.03 0.04 0.02 0.02 0.01 0.01 0.00 0.00 0.00 0.00 0.01 0.01 0.01 0.02 0.02 0.03 0.04 0.04 0.03 0.03 0.04 0.04 0.04 0.04 0.05 0.05 0.04 0.05 0.05 0.05 0.04
0.00 0.00 0.00 0.00 0.00 0.00 0.00 0.00 0.00 0.00 0.00 0.00 0.00 0.03 0.02 0.01 0.02 0.01 0.00 0.00 0.00 0.00 0.00 0.00 0.00 0.01 0.01 0.01 0.01 0.01 0.01 0.01 0.01 0.02 0.03 0.05 0.05 0.05 0.06 0.06 0.05 0.05 0.04 0.03
0.00 0.00 0.00 0.00 0.01 0.01 0.01 0.00 0.00 0.00 0.00 0.00 0.01 0.03 0.02 0.00 0.01 0.01 0.00 0.00 0.00 0.00 0.00 0.00 0.00 0.00 0.01 0.01 0.00 0.00 0.00 0.01 0.01 0.01 0.03 0.04 0.06 0.06 0.06 0.05 0.06 0.06 0.05 0.04
0.00 0.00 0.00 0.01 0.03 0.05 0.03 0.01 0.01 0.02 0.01 0.01 0.05 0.04 0.01 0.01 0.02 0.02 0.01 0.00 0.00 0.00 0.00 0.00 0.00 0.01 0.01 0.02 0.01 0.01 0.01 0.01 0.01 0.01 0.01 0.02 0.04 0.06 0.06 0.05 0.06 0.06 0.06 0.05
0.00 0.00 0.00 0.02 0.03 0.05 0.04 0.01 0.01 0.03 0.03 0.02 0.02 0.01 0.01 0.01 0.02 0.03 0.01 0.01 0.00 0.00 0.00 0.00 0.01 0.01 0.02 0.02 0.02 0.02 0.03 0.03 0.03 0.02 0.02 0.03 0.04 0.05 0.06 0.06 0.06 0.06 0.06 0.05
0.01 0.00 0.00 0.01 0.03 0.04 0.04 0.04 0.04 0.03 0.02 0.01 0.01 0.01 0.01 0.01 0.01 0.01 0.01 0.01 0.02 0.02 0.02 0.02 0.02 0.02 0.03 0.03 0.02 0.03 0.04 0.04 0.04 0.04 0.04 0.05 0.06 0.05 0.05 0.05 0.06 0.06 0.06 0.07
0.03 0.02 0.02 0.02 0.02 0.01 0.01 0.01 0.01 0.01 0.02 0.04 0.02 0.01 0.01 0.01 0.01 0.01 0.02 0.02 0.02 0.02 0.02 0.02 0.02 0.03 0.04 0.04 0.03 0.04 0.04 0.04 0.04 0.05 0.06 0.07 0.06 0.06 0.07 0.06 0.06 0.07 0.06 0.05
0.03 0.03 0.02 0.01 0.01 0.01 0.01 0.01 0.01 0.01 0.01 0.03 0.02 0.01 0.01 0.01 0.02 0.02 0.02 0.02 0.02 0.02 0.02 0.02 0.02 0.03 0.04 0.06 0.06 0.06 0.06 0.04 0.04 0.04 0.06 0.07 0.07 0.07 0.08 0.06 0.06 0.06 0.06 0.06
0.05 0.03 0.02 0.02 0.02 0.01 0.01 0.01 0.01 0.01 0.02 0.03 0.03 0.02 0.01 0.01 0.01 0.01 0.01 0.01 0.01 0.01 0.01 0.01 0.02 0.03 0.04 0.06 0.06 0.06 0.06 0.06 0.05 0.05 0.04 0.04 0.05 0.05 0.04 0.05 0.05 0.06 0.06 0.07
0.03 0.03 0.04 0.05 0.03 0.02 0.02 0.01 0.02 0.02 0.02 0.03 0.02 0.01 0.01 0.01 0.01 0.01 0.01 0.01 0.01 0.01 0.01 0.02 0.03 0.03 0.03 0.04 0.04 0.05 0.07 0.08 0.08 0.06 0.05 0.03 0.03 0.05 0.04 0.03 0.03 0.04 0.04 0.05
MSLP
1005.25 1005.77 1006.13 1006.37 1006.53 1006.68 1006.85 1007.07 1007.33 1007.59 1007.81 1007.94 1007.95 1007.83 1007.64 1007.40 1007.20 1007.08 1007.10 1007.26 1007.55 1007.94 1008.39 1008.83 1009.23 1009.58 1009.86 1010.09 1010.29 1010.49 1010.70 1010.94 1011.19 1011.45 1011.72 1011.97 1012.20 1012.40 1012.58 1012.74 1012.88 1013.00 1013.12 1013.22
1005.85 1006.21 1006.41 1006.48 1006.49 1006.52 1006.60 1006.78 1007.01 1007.27 1007.49 1007.63 1007.64 1007.52 1007.31 1007.06 1006.85 1006.73 1006.75 1006.92 1007.24 1007.66 1008.13 1008.59 1009.00 1009.34 1009.62 1009.84 1010.05 1010.28 1010.54 1010.85 1011.21 1011.59 1011.97 1012.33 1012.64 1012.90 1013.10 1013.26 1013.38 1013.47 1013.55 1013.62
1006.29 1006.50 1006.53 1006.47 1006.37 1006.32 1006.38 1006.55 1006.81 1007.11 1007.37 1007.53 1007.56 1007.45 1007.23 1006.97 1006.74 1006.61 1006.63 1006.82 1007.16 1007.61 1008.11 1008.59 1009.01 1009.35 1009.61 1009.82 1010.02 1010.24 1010.52 1010.88 1011.29 1011.75 1012.21 1012.65 1013.03 1013.34 1013.57 1013.73 1013.85 1013.92 1013.98 1014.03
1006.55 1006.62 1006.54 1006.38 1006.24 1006.19 1006.28 1006.52 1006.86 1007.24 1007.57 1007.79 1007.85 1007.75 1007.52 1007.23 1006.97 1006.82 1006.84 1007.03 1007.39 1007.87 1008.40 1008.91 1009.35 1009.70 1009.95 1010.13 1010.30 1010.49 1010.75 1011.09 1011.51 1011.99 1012.48 1012.96 1013.38 1013.72 1013.98 1014.16 1014.27 1014.35 1014.40 1014.45
1006.63 1006.61 1006.46 1006.29 1006.17 1006.19 1006.38 1006.73 1007.20 1007.70 1008.13 1008.42 1008.52 1008.42 1008.18 1007.86 1007.56 1007.38 1007.38 1007.57 1007.94 1008.45 1009.01 1009.56 1010.03 1010.38 1010.63 1010.79 1010.91 1011.05 1011.25 1011.53 1011.91 1012.35 1012.83 1013.29 1013.72 1014.07 1014.34 1014.54 1014.67 1014.76 1014.82 1014.87
1006.60 1006.52 1006.37 1006.23 1006.19 1006.32 1006.66 1007.17 1007.79 1008.42 1008.96 1009.33 1009.47 1009.38 1009.12 1008.76 1008.43 1008.20 1008.17 1008.35 1008.73 1009.26 1009.86 1010.44 1010.94 1011.32 1011.57 1011.70 1011.78 1011.85 1011.96 1012.16 1012.45 1012.82 1013.23 1013.66 1014.06 1014.41 1014.69 1014.90 1015.04 1015.15 1015.23 1015.31
1006.54 1006.44 1006.32 1006.25 1006.32 1006.59 1007.07 1007.74 1008.50 1009.26 1009.90 1010.34 1010.51 1010.44 1010.16 1009.78 1009.41 1009.15 1009.08 1009.25 1009.63 1010.18 1010.81 1011.43 1011.96 1012.37 1012.62 1012.74 1012.77 1012.77 1012.80 1012.89 1013.08 1013.35 1013.69 1014.05 1014.42 1014.75 1015.03 1015.25 1015.42 1015.55 1015.65 1015.74
1006.51 1006.44 1006.37 1006.38 1006.56 1006.95 1007.55 1008.33 1009.20 1010.05 1010.76 1011.24 1011.46 1011.39 1011.12 1010.73 1010.34 1010.06 1009.98 1010.13 1010.51 1011.07 1011.72 1012.37 1012.93 1013.36 1013.62 1013.73 1013.73 1013.67 1013.62 1013.62 1013.71 1013.89 1014.14 1014.45 1014.77 1015.09 1015.37 1015.60 1015.79 1015.95 1016.07 1016.18
1006.58 1006.55 1006.55 1006.63 1006.89 1007.34 1008.01 1008.84 1009.75 1010.63 1011.37 1011.87 1012.11 1012.07 1011.82 1011.45 1011.07 1010.81 1010.73 1010.89 1011.27 1011.83 1012.48 1013.14 1013.72 1014.16 1014.43 1014.53 1014.51 1014.41 1014.31 1014.24 1014.26 1014.36 1014.56 1014.81 1015.11 1015.41 1015.70 1015.95 1016.17 1016.35 1016.49 1016.60
1006.78 1006.82 1006.87 1007.00 1007.29 1007.75 1008.41 1009.21 1010.08 1010.92 1011.63 1012.13 1012.37 1012.37 1012.17 1011.86 1011.54 1011.33 1011.28 1011.46 1011.84 1012.39 1013.04 1013.69 1014.26 1014.69 1014.96 1015.06 1015.03 1014.92 1014.79 1014.69 1014.67 1014.74 1014.89 1015.13 1015.42 1015.72 1016.03 1016.30 1016.54 1016.74 1016.90 1017.02
1007.11 1007.22 1007.32 1007.48 1007.75 1008.16 1008.72 1009.41 1010.16 1010.90 1011.53 1011.99 1012.24 1012.28 1012.16 1011.94 1011.73 1011.60 1011.62 1011.83 1012.22 1012.75 1013.37 1013.98 1014.52 1014.93 1015.19 1015.29 1015.26 1015.16 1015.04 1014.95 1014.92 1014.99 1015.15 1015.39 1015.68 1016.01 1016.34 1016.64 1016.91 1017.13 1017.31 1017.44
1007.50 1007.71 1007.87 1008.03 1008.24 1008.55 1008.97 1009.49 1010.07 1010.64 1011.16 1011.55 1011.80 1011.90 1011.87 1011.78 1011.69 1011.68 1011.79 1012.04 1012.44 1012.95 1013.52 1014.08 1014.56 1014.93 1015.16 1015.26 1015.25 1015.18 1015.09 1015.03 1015.04 1015.14 1015.33 1015.60 1015.92 1016.28 1016.64 1016.97 1017.27 1017.52 1017.71 1017.86
1007.92 1008.23 1008.45 1008.61 1008.76 1008.94 1009.19 1009.50 1009.87 1010.27 1010.64 1010.96 1011.20 1011.35 1011.43 1011.47 1011.53 1011.64 1011.84 1012.15 1012.55 1013.03 1013.53 1014.02 1014.43 1014.75 1014.95 1015.05 1015.06 1015.03 1015.00 1015.00 1015.08 1015.23 1015.47 1015.79 1016.15 1016.54 1016.94 1017.30 1017.63 1017.91 1018.13 1018.30
1008.32 1008.74 1009.02 1009.18 1009.27 1009.33 1009.40 1009.52 1009.68 1009.89 1010.12 1010.36 1010.58 1010.78 1010.95 1011.12 1011.31 1011.54 1011.83 1012.18 1012.58 1013.02 1013.45 1013.85 1014.19 1014.45 1014.62 1014.72 1014.77 1014.79 1014.83 1014.91 1015.07 1015.29 1015.60 1015.96 1016.37 1016.80 1017.23 1017.63 1017.99 1018.30 1018.56 1018.76
1008.67 1009.19 1009.54 1009.71 1009.75 1009.71 1009.63 1009.57 1009.55 1009.58 1009.68 1009.84 1010.04 1010.27 1010.52 1010.80 1011.10 1011.43 1011.78 1012.16 1012.55 1012.93 1013.29 1013.61 1013.87 1014.07 1014.22 1014.33 1014.41 1014.50 1014.62 1014.79 1015.03 1015.34 1015.71 1016.13 1016.59 1017.06 1017.52 1017.95 1018.35 1018.69 1018.98 1019.22
1008.95 1009.56 1009.96 1010.15 1010.16 1010.04 1009.86 1009.65 1009.48 1009.38 1009.37 1009.45 1009.63 1009.87 1010.18 1010.53 1010.91 1011.31 1011.70 1012.08 1012.44 1012.77 1013.06 1013.30 1013.49 1013.65 1013.78 1013.90 1014.03 1014.19 1014.39 1014.65 1014.98 1015.36 1015.80 1016.28 1016.78 1017.28 1017.78 1018.25 1018.67 1019.05 1019.38 1019.65
1009.18 1009.83 1010.26 1010.46 1010.46 1010.30 1010.03 1009.74 1009.47 1009.27 1009.17 1009.20 1009.34 1009.59 1009.93 1010.32 1010.74 1011.17 1011.57 1011.94 1012.26 1012.53 1012.75 1012.93 1013.07 1013.19 1013.31 1013.46 1013.63 1013.86 1014.14 1014.48 1014.89 1015.35 1015.85 1016.38 1016.92 1017.46 1017.99 1018.49 1018.95 1019.36 1019.72 1020.02
1009.35 1009.99 1010.42 1010.61 1010.59 1010.40 1010.11 1009.76 1009.43 1009.18 1009.03 1009.02 1009.14 1009.39 1009.73 1010.13 1010.57 1010.99 1011.39 1011.73 1012.01 1012.22 1012.38 1012.51 1012.61 1012.71 1012.83 1013.00 1013.22 1013.50 1013.85 1014.27 1014.74 1015.26 1015.82 1016.40 1016.99 1017.56 1018.13 1018.66 1019.15 1019.59 1019.98 1020.31
1009.44 1010.03 1010.41 1010.57 1010.53 1010.33 1010.02 1009.65 1009.31 1009.04 1008.87 1008.85 1008.96 1009.20 1009.54 1009.94 1010.37 1010.78 1011.15 1011.46 1011.70 1011.87 1011.99 1012.07 1012.15 1012.24 1012.37 1012.55 1012.81 1013.14 1013.54 1014.01 1014.54 1015.11 1015.71 1016.33 1016.96 1017.58 1018.17 1018.74 1019.27 1019.74 1020.15 1020.50
1009.43 1009.92 1010.22 1010.33 1010.27 1010.05 1009.74 1009.39 1009.06 1008.80 1008.65 1008.64 1008.76 1009.00 1009.34 1009.73 1010.14 1010.54 1010.89 1011.17 1011.38 1011.52 1011.61 1011.67 1011.73 1011.82 1011.95 1012.16 1012.43 1012.79 1013.22 1013.73 1014.29 1014.90 1015.54 1016.19 1016.85 1017.51 1018.14 1018.75 1019.30 1019.80 1020.24 1020.60
1009.26 1009.63 1009.84 1009.89 1009.79 1009.58 1009.28 1008.96 1008.67 1008.45 1008.34 1008.35 1008.50 1008.75 1009.10 1009.49 1009.90 1010.28 1010.62 1010.88 1011.08 1011.21 1011.29 1011.35 1011.41 1011.50 1011.65 1011.85 1012.14 1012.51 1012.95 1013.47 1014.04 1014.67 1015.33 1016.01 1016.70 1017.39 1018.06 1018.70 1019.28 1019.81 1020.27 1020.64
1008.90 1009.16 1009.29 1009.28 1009.16 1008.95 1008.68 1008.41 1008.17 1008.01 1007.95 1008.02 1008.20 1008.48 1008.83 1009.24 1009.65 1010.03 1010.37 1010.64 1010.84 1010.99 1011.08 1011.15 1011.23 1011.33 1011.48 1011.69 1011.98 1012.34 1012.78 1013.29 1013.86 1014.49 1015.15 1015.85 1016.56 1017.27 1017.97 1018.63 1019.25 1019.80 1020.27 1020.66
1008.36 1008.53 1008.59 1008.55 1008.43 1008.23 1008.02 1007.80 1007.63 1007.54 1007.55 1007.67 1007.88 1008.19 1008.57 1008.99 1009.41 1009.81 1010.15 1010.45 1010.67 1010.85 1010.97 1011.08 1011.18 1011.31 1011.47 1011.69 1011.98 1012.33 1012.75 1013.25 1013.80 1014.41 1015.07 1015.76 1016.47 1017.19 1017.90 1018.58 1019.22 1019.79 1020.28 1020.68
1007.66 1007.78 1007.82 1007.78 1007.68 1007.53 1007.38 1007.23 1007.14 1007.12 1007.19 1007.35 1007.61 1007.94 1008.33 1008.76 1009.19 1009.60 1009.97 1010.29 1010.56 1010.78 1010.96 1011.11 1011.27 1011.43 1011.63 1011.86 1012.15 1012.50 1012.91 1013.38 1013.90 1014.49 1015.12 1015.79 1016.48 1017.19 1017.90 1018.58 1019.22 1019.79 1020.30 1020.72
1006.87 1006.99 1007.05 1007.05 1007.00 1006.92 1006.84 1006.78 1006.76 1006.80 1006.92 1007.12 1007.40 1007.74 1008.13 1008.55 1008.99 1009.40 1009.80 1010.15 1010.47 1010.74 1010.99 1011.21 1011.43 1011.66 1011.90 1012.17 1012.48 1012.83 1013.23 1013.68 1014.18 1014.73 1015.32 1015.95 1016.61 1017.28 1017.95 1018.61 1019.23 1019.80 1020.31 1020.74
1006.08 1006.24 1006.35 1006.42 1006.45 1006.47 1006.47 1006.49 1006.54 1006.64 1006.79 1007.00 1007.28 1007.61 1007.98 1008.38 1008.80 1009.21 1009.61 1010.00 1010.36 1010.69 1011.01 1011.32 1011.62 1011.93 1012.24 1012.57 1012.92 1013.29 1013.70 1014.13 1014.61 1015.11 1015.65 1016.23 1016.82 1017.44 1018.06 1018.66 1019.24 1019.79 1020.28 1020.71
Thickness
5854 5842 5832 5839 5845 5840 5844 5843 5840 5852 5869 5860 5848 5844 5850 5858 5856 5850 5847 5842 5837 5837 5840 5839 5837 5835 5830 5825 5821 5819 5816 5815 5813 5810 5807 5805 5803 5804 5804 5803 5801 5799 5798 5797
5837 5831 5850 5861 5857 5851 5846 5841 5842 5856 5869 5859 5848 5845 5855 5860 5857 5855 5850 5844 5840 5838 5837 5836 5836 5834 5829 5824 5821 5819 5816 5814 5813 5811 5809 5807 5806 5805 5804 5803 5801 5799 5798 5797
5825 5841 5860 5856 5850 5844 5846 5843 5843 5846 5861 5859 5846 5835 5845 5854 5859 5855 5853 5850 5848 5842 5836 5833 5834 5832 5830 5825 5822 5820 5817 5815 5813 5812 5810 5808 5805 5803 5801 5800 5798 5799 5798 5797
5838 5855 5855 5851 5848 5847 5837 5859 5856 5852 5843 5835 5840 5810 5828 5840 5841 5843 5848 5849 5848 5846 5840 5835 5834 5832 5830 5828 5826 5823 5819 5816 5814 5812 5809 5804 5799 5796 5798 5799 5798 5798 5798 5797
5837 5849 5849 5844 5852 5854 5850 5863 5856 5850 5840 5831 5833 5816 5815 5834 5824 5833 5845 5848 5849 5847 5841 5836 5835 5834 5833 5831 5827 5823 5819 5815 5813 5811 5809 5805 5801 5799 5800 5799 5797 5796 5796 5796
5848 5862 5860 5857 5865 5865 5862 5855 5851 5847 5834 5811 5820 5812 5805 5824 5823 5832 5843 5845 5845 5846 5843 5839 5838 5835 5833 5831 5827 5823 5817 5813 5812 5809 5807 5804 5800 5798 5796 5795 5793 5793 5794 5794
5830 5846 5861 5865 5851 5857 5854 5834 5813 5804 5801 5804 5828 5817 5811 5835 5841 5839 5840 5842 5844 5842 5838 5835 5832 5830 5828 5826 5823 5820 5814 5810 5809 5807 5804 5802 5800 5797 5794 5792 5791 5791 5791 5790
5814 5819 5846 5856 5848 5840 5844 5836 5806 5789 5791 5804 5819 5811 5822 5843 5847 5847 5844 5842 5840 5838 5835 5831 5828 5826 5825 5823 5820 5817 5812 5808 5807 5804 5802 5800 5799 5796 5794 5792 5792 5790 5789 5789
5821 5822 5850 5858 5861 5851 5836 5834 5843 5821 5813 5802 5807 5811 5828 5843 5839 5839 5837 5835 5834 5834 5831 5827 5825 5825 5823 5821 5818 5815 5810 5806 5804 5802 5800 5797 5795 5794 5792 5792 5790 5789 5788 5788
5835 5819 5839 5855 5856 5853 5849 5844 5832 5815 5789 5781 5794 5799 5805 5816 5822 5829 5828 5830 5832 5832 5829 5825 5822 5820 5821 5819 5816 5814 5809 5805 5802 5800 5798 5795 5793 5791 5790 5789 5787 5785 5784 5783
5839 5819 5825 5837 5832 5831 5836 5833 5828 5820 5813 5790 5778 5787 5822 5821 5823 5821 5824 5827 5828 5827 5825 5823 5819 5817 5817 5816 5813 5809 5806 5803 5800 5797 5795 5793 5789 5788 5787 5785 5784 5782 5780 5779
5835 5823 5812 5825 5848 5853 5842 5834 5829 5808 5803 5807 5793 5792 5834 5830 5831 5824 5822 5824 5824 5824 5822 5819 5816 5814 5810 5808 5806 5803 5802 5799 5797 5795 5792 5789 5787 5785 5783 5781 5779 5778 5776 5775
5828 5813 5794 5800 5818 5832 5829 5833 5834 5831 5821 5806 5791 5789 5823 5826 5824 5820 5817 5818 5818 5818 5815 5813 5810 5806 5803 5800 5799 5798 5797 5795 5793 5790 5787 5784 5782 5780 5777 5776 5775 5773 5772 5770
5827 5809 5798 5789 5802 5819 5816 5823 5828 5822 5807 5802 5803 5799 5807 5810 5811 5813 5810 5813 5814 5811 5808 5805 5801 5799 5796 5794 5792 5791 5790 5790 5788 5784 5781 5778 5776 5775 5773 5772 5771 5769 5767 5765
5820 5800 5804 5812 5822 5823 5817 5819 5822 5817 5814 5804 5807 5805 5805 5809 5808 5809 5807 5807 5806 5803 5800 5797 5795 5792 5790 5788 5787 5785 5784 5784 5783 5778 5775 5772 5772 5771 5769 5767 5765 5763 5761 5759
5809 5793 5795 5797 5813 5817 5814 5819 5821 5820 5819 5814 5807 5802 5813 5812 5810 5805 5803 5801 5798 5796 5794 5792 5790 5787 5785 5783 5781 5779 5778 5778 5776 5773 5770 5769 5767 5765 5763 5761 5759 5757 5755 5753
5796 5786 5777 5780 5800 5801 5794 5812 5814 5813 5819 5814 5798 5799 5806 5801 5798 5798 5798 5796 5794 5791 5789 5786 5785 5782 5780 5779 5777 5774 5774 5773 5770 5767 5765 5763 5761 5758 5756 5755 5752 5749 5747 5746
5787 5780 5776 5774 5778 5762 5795 5825 5821 5812 5813 5814 5806 5802 5800 5795 5796 5797 5796 5792 5789 5787 5783 5781 5780 5779 5779 5777 5775 5772 5770 5767 5764 5761 5758 5757 5755 5752 5750 5747 5745 5743 5741 5738
5795 5776 5768 5765 5762 5770 5793 5806 5806 5797 5791 5803 5797 5794 5796 5796 5791 5785 5790 5789 5785 5783 5780 5777 5777 5775 5773 5771 5768 5765 5762 5760 5757 5754 5751 5750 5748 5746 5743 5739 5737 5736 5733 5731
5791 5782 5765 5758 5749 5749 5772 5795 5804 5793 5773 5792 5790 5785 5789 5786 5768 5765 5778 5779 5776 5775 5773 5771 5770 5767 5764 5762 5760 5756 5753 5751 5749 5747 5745 5744 5741 5738 5735 5733 5730 5729 5726 5724
5765 5762 5755 5749 5746 5755 5777 5789 5788 5756 5753 5778 5780 5778 5778 5771 5766 5766 5769 5767 5766 5764 5763 5761 5758 5755 5753 5753 5750 5745 5743 5741 5741 5740 5739 5737 5734 5731 5728 5726 5723 5721 5718 5716
5754 5749 5745 5746 5738 5738 5769 5772 5758 5752 5767 5771 5770 5771 5769 5765 5764 5762 5759 5756 5754 5752 5751 5749 5745 5743 5743 5743 5740 5736 5734 5735 5734 5732 5729 5727 5725 5724 5722 5718 5715 5712 5709 5706
5753 5750 5748 5745 5741 5754 5763 5761 5762 5765 5760 5760 5759 5761 5760 5756 5753 5751 5747 5745 5743 5741 5739 5737 5734 5731 5731 5731 5729 5726 5726 5727 5725 5722 5719 5717 5715 5714 5712 5709 5706 5703 5700 5697
5746 5752 5744 5739 5743 5751 5754 5757 5758 5758 5755 5755 5755 5754 5752 5746 5744 5741 5737 5734 5732 5730 5728 5726 5724 5720 5719 5719 5719 5718 5718 5717 5715 5712 5709 5708 5706 5705 5703 5700 5698 5695 5693 5690
5735 5737 5733 5729 5736 5740 5744 5746 5747 5748 5749 5748 5746 5745 5741 5737 5733 5730 5726 5724 5722 5721 5719 5717 5713 5710 5709 5708 5708 5708 5708 5706 5703 5701 5700 5699 5698 5696 5693 5692 5690 5688 5686 5684
5732 5727 5721 5718 5727 5728 5730 5738 5740 5737 5735 5735 5733 5731 5731 5728 5723 5720 5716 5715 5713 5710 5708 5705 5703 5701 5700 5699 5698 5697 5697 5696 5693 5690 5690 5689 5689 5688 5686 5684 5682 5680 5678 5675